IZ5ILJ Weather Reports


time (UTC)temp
C
wind
direction
speed
KPH
gust
KPH
rain 1hr
cm
rain 24hr
cm
rain mn
cm
humidity
%
barometer
mb
20260506165641 19 202 8.0 12.9 0.00 0.81 0.13 61 1007.1
20260506164741 19 191 9.7 20.9 0.00 1.04 0.13 61 1007.4
20260506162941 20 157 14.5 27.4 0.00 1.17 0.13 59 1007.6
20260506162041 20 157 17.7 37.0 0.00 1.17 0.13 57 1007.4
20260506161141 20 177 16.1 29.0 0.00 1.42 0.13 55 1007.2
20260506160241 21 181 12.9 17.7 0.00 1.42 0.13 55 1007.1
20260506155341 20 135 16.1 25.7 0.00 1.45 0.13 57 1007.0
20260506154441 20 135 16.1 25.7 0.00 1.45 0.13 57 1007.3
20260506153541 20 135 16.1 25.7 0.00 1.45 0.13 57 1007.1
20260506152641 20 136 16.1 25.7 0.00 1.45 0.13 57 1007.4
20260506151741 20 160 14.5 25.7 0.00 1.45 0.13 57 1007.4
20260506145942 20 132 12.9 22.5 0.00 1.45 0.13 56 1007.5
20260506131135 20 136 16.1 29.0 0.00 1.45 0.13 60 1007.4
20260506130235 20 195 16.1 24.1 0.00 1.45 0.13 58 1007.7
20260506124435 18 111 12.9 19.3 0.00 1.45 0.13 71 1007.7
20260506123535 18 111 12.9 19.3 0.00 1.45 0.13 71 1008.0
20260506122635 18 111 12.9 19.3 0.00 1.45 0.13 71 1007.9
20260506120835 18 111 12.9 19.3 0.00 1.45 0.13 71 1007.7
20260506115935 18 111 12.9 19.3 0.00 1.45 0.13 71 1007.7
20260506115035 18 111 12.9 19.3 0.00 1.45 0.13 71 1007.8
20260506114135 18 116 12.9 20.9 0.00 1.45 0.13 71 1007.7
20260506113235 18 154 11.3 20.9 0.00 1.45 0.13 71 1007.8
20260506111435 18 111 11.3 16.1 0.00 1.45 0.13 73 1007.8
20260506110535 18 128 16.1 24.1 0.00 1.45 0.13 73 1008.1
20260506104735 18 118 17.7 33.8 0.00 1.45 0.13 73 1008.2
20260506102935 18 129 14.5 27.4 0.00 1.45 0.13 75 1008.0
20260506101659 18 132 17.7 33.8 0.00 1.45 0.13 72 1008.6
20260506095859 18 112 19.3 37.0 0.00 1.45 0.13 72 1008.4